Regional Weather Roundup
Issued by NWS Sioux Falls, SD

Home | Current Version | Previous Version | Text Only | Print | Product List | Glossary Off
Versions: 1 2 3 4 5 6 7 8 9 10 11 12 13 14 15 16 17 18 19 20 21 22 23 24 25 26 27 28 29 30 31 32 33 34 35 36 37 38 39 40 41 42 43 44 45 46 47 48 49 50

000
ASUS43 KFSD 151910
RWRFSD

WEATHER ROUNDUP FOR SE SOUTH DAKOTA/SW MINNESOTA/NW IOWA
NATIONAL WEATHER SERVICE SIOUX FALLS SD
100 PM CST FRI DEC 15 2017

NOTE: "FAIR" INDICATES FEW OR NO CLOUDS BELOW 12,000 FEET WITH NO
SIGNIFICANT WEATHER AND OR OBSTRUCTIONS TO VISIBILITY.


SDZ038>040-050-052>070-152000-
SOUTHEAST SOUTH DAKOTA

CITY           SKY/WX    TMP DP  RH WIND       PRES   REMARKS
BROOKINGS      CLOUDY    36  27  69 W8        29.76F
CHAMBERLAIN    SUNNY     41  31  67 S9        29.75F
HURON          CLOUDY    41  26  55 S12       29.75F
MADISON        MOCLDY    37  28  70 SW10      29.76F
MITCHELL       CLOUDY    39  26  59 SW10      29.80F
SIOUX FALLS    CLOUDY    39  26  59 W7        29.80F
WINNER         FAIR      42  29  59 SW14      29.76F
YANKTON        CLOUDY    37  25  61 SW12      29.82F
$$

MNZ071-072-080-081-089-090-097-098-152000-
SOUTHWEST MINNESOTA

CITY           SKY/WX    TMP DP  RH WIND       PRES   REMARKS
FAIRMONT       CLOUDY    38  28  67 W9        29.82F
JACKSON        SUNNY     37  28  70 MISG      29.81F
LUVERNE        CLOUDY    36  27  69 SW14      29.81F
MARSHALL       SUNNY     37  28  70 W10       29.79F
MONTEVIDEO     MOSUNNY   34  28  80 CALM      29.78F
PIPESTONE      MOSUNNY   36  27  69 W10       29.77F
REDWOOD FALLS  CLOUDY    35  30  82 VRB5      29.79F
TRACY          SUNNY     37  30  75 SW9       29.78F
WINDOM           N/A     39  23  52 SW12      29.80F
WORTHINGTON    PTSUNNY   39  27  62 W18       29.79F
$$

IAZ001>003-012>014-020>022-031-032-NEZ013-014-SDZ071-152000-
NORTHWEST IOWA

CITY           SKY/WX    TMP DP  RH WIND       PRES   REMARKS
CHEROKEE       MOSUNNY   44  24  44 W17       29.84F
DENISON        PTSUNNY   43  23  45 SW17G26   29.90F
ESTHERVILLE    MOSUNNY   38  28  67 W14       29.81F
LE MARS        MOSUNNY   43  25  49 SW12G17   29.84F
ORANGE CITY    SUNNY     43  27  52 SW14      29.82F
SHELDON        CLOUDY    41  25  52 W15       29.80F
SIOUX CITY     CLOUDY    43  25  49 SW15      29.86F
SPENCER        PTSUNNY   41  26  55 W15G22    29.82F
STORM LAKE     MOSUNNY   43  23  45 SW18G28   29.83F
$$

ABBREVIATIONS USED IN REMARKS
   TC - TEMPERATURE IN CELSIUS
  WCI - WIND CHILL INDEX
   HX - HEAT INDEX
  VSB - VISIBILITY





USA.gov is the U.S. government's official web portal to all federal, state and local government web resources and services.